When you browse on this site, cookies collect data to enhance your experience and personalize the content and advertising you see.
Visit our Privacy Policy to learn more. By continuing to use the site, you agree to this use of cookies and data.
  • In Denmark
  • List of Countries
  • For 7 days
  • Water Temperature
  • Satellite Maps
  • Weather Map
  • Weather Widgets
  • user-avatar
    Login

    Hourly Weather Maan

    Today, 17 July, Wednesday

    Time Temperature Precipitation Wind Pressure Humidity
    00:00 +20°C° 0 mm 1 mps 634 mmHg 40%
    01:00 +20°C° 0 mm 1 mps 634 mmHg 39%
    02:00 +19°C° 0 mm 2 mps 634 mmHg 39%
    03:00 +19°C° 0 mm 2 mps 634 mmHg 37%
    04:00 +20°C° 0 mm 2 mps 634 mmHg 36%
    05:00 +20°C° 0 mm 2 mps 634 mmHg 35%
    06:00 +24°C° 0 mm 3 mps 635 mmHg 30%
    07:00 +27°C° 0 mm 3 mps 636 mmHg 26%
    08:00 +32°C° 0 mm 4 mps 637 mmHg 20%
    09:00 +33°C° 0 mm 5 mps 637 mmHg 18%
    10:00 +35°C° 0 mm 6 mps 638 mmHg 16%
    11:00 +36°C° 0 mm 6 mps 638 mmHg 14%
    12:00 +37°C° 0 mm 8 mps 638 mmHg 13%
    13:00 +38°C° 0 mm 9 mps 637 mmHg 12%
    14:00 +38°C° 0 mm 10 mps 637 mmHg 10%
    15:00 +38°C° 0 mm 10 mps 637 mmHg 11%
    16:00 +37°C° 0 mm 10 mps 637 mmHg 12%
    17:00 +37°C° 0 mm 10 mps 637 mmHg 13%
    18:00 +32°C° 0 mm 7 mps 636 mmHg 22%
    19:00 +28°C° 0 mm 5 mps 635 mmHg 31%
    20:00 +25°C° 0 mm 2 mps 635 mmHg 40%
    21:00 +24°C° 0 mm 2 mps 635 mmHg 41%
    22:00 +23°C° 0 mm 2 mps 635 mmHg 43%
    23:00 +21°C° 0 mm 2 mps 635 mmHg 44%

    Tomorrow, 18 July, Thursday

    Time Temperature Precipitation Wind Pressure Humidity
    00:00 +21°C° 0 mm 2 mps 634 mmHg 46%
    01:00 +21°C° 0 mm 2 mps 634 mmHg 47%
    02:00 +20°C° 0 mm 2 mps 634 mmHg 48%
    03:00 +20°C° 0 mm 2 mps 634 mmHg 49%
    04:00 +20°C° 0 mm 1 mps 633 mmHg 51%
    05:00 +20°C° 0 mm 1 mps 633 mmHg 52%
    06:00 +21°C° 0 mm 2 mps 634 mmHg 45%
    07:00 +25°C° 0 mm 3 mps 636 mmHg 37%
    08:00 +28°C° 0 mm 3 mps 637 mmHg 30%
    09:00 +29°C° 0 mm 4 mps 637 mmHg 27%
    10:00 +32°C° 0 mm 5 mps 637 mmHg 23%
    11:00 +33°C° 0 mm 6 mps 638 mmHg 20%
    12:00 +34°C° 0 mm 7 mps 638 mmHg 19%
    13:00 +35°C° 0 mm 8 mps 637 mmHg 18%
    14:00 +35°C° 0 mm 9 mps 637 mmHg 17%
    15:00 +36°C° 0 mm 10 mps 637 mmHg 18%
    16:00 +34°C° 0 mm 10 mps 637 mmHg 19%
    17:00 +33°C° 0 mm 10 mps 637 mmHg 21%
    18:00 +29°C° 0 mm 8 mps 636 mmHg 32%
    19:00 +24°C° 0 mm 6 mps 636 mmHg 43%
    20:00 +21°C° 0 mm 4 mps 635 mmHg 54%
    21:00 +20°C° 0 mm 3 mps 635 mmHg 56%
    22:00 +19°C° 0 mm 3 mps 635 mmHg 58%
    23:00 +18°C° 0 mm 3 mps 635 mmHg 60%

    Day after tomorrow, 19 July, Friday

    Time Temperature Precipitation Wind Pressure Humidity
    00:00 +18°C° 0 mm 2 mps 635 mmHg 60%
    01:00 +17°C° 0 mm 2 mps 635 mmHg 61%
    02:00 +16°C° 0 mm 2 mps 635 mmHg 62%
    03:00 +16°C° 0 mm 2 mps 635 mmHg 63%
    04:00 +15°C° 0 mm 2 mps 634 mmHg 64%
    05:00 +15°C° 0 mm 2 mps 634 mmHg 65%
    06:00 +17°C° 0 mm 2 mps 635 mmHg 56%
    07:00 +19°C° 0 mm 2 mps 636 mmHg 47%
    08:00 +23°C° 0 mm 2 mps 637 mmHg 38%
    09:00 +25°C° 0 mm 3 mps 637 mmHg 32%
    10:00 +26°C° 0 mm 3 mps 638 mmHg 26%
    11:00 +28°C° 0 mm 4 mps 638 mmHg 20%
    12:00 +29°C° 0 mm 4 mps 638 mmHg 19%
    13:00 +30°C° 0 mm 5 mps 637 mmHg 18%
    14:00 +30°C° 0 mm 5 mps 637 mmHg 16%
    15:00 +30°C° 0 mm 5 mps 637 mmHg 18%
    16:00 +29°C° 0 mm 5 mps 637 mmHg 20%
    17:00 +28°C° 0 mm 5 mps 636 mmHg 22%
    18:00 +26°C° 0 mm 5 mps 636 mmHg 35%
    19:00 +22°C° 0 mm 5 mps 635 mmHg 49%
    20:00 +19°C° 0 mm 4 mps 635 mmHg 62%
    21:00 +19°C° 0 mm 4 mps 635 mmHg 62%
    22:00 +18°C° 0 mm 4 mps 635 mmHg 63%
    23:00 +18°C° 0 mm 3 mps 635 mmHg 64%

    20 July, Saturday

    Time Temperature Precipitation Wind Pressure Humidity
    00:00 +17°C° 0 mm 3 mps 635 mmHg 60%
    01:00 +16°C° 0 mm 3 mps 635 mmHg 57%
    02:00 +16°C° 0 mm 2 mps 634 mmHg 53%
    03:00 +14°C° 0 mm 2 mps 634 mmHg 55%
    04:00 +13°C° 0 mm 1 mps 633 mmHg 56%
    05:00 +11°C° 0 mm 0 mps 633 mmHg 58%
    06:00 +15°C° 0 mm 1 mps 634 mmHg 48%
    07:00 +19°C° 0 mm 1 mps 635 mmHg 39%
    08:00 +22°C° 0 mm 1 mps 637 mmHg 29%
    09:00 +24°C° 0 mm 1 mps 637 mmHg 25%
    10:00 +26°C° 0 mm 2 mps 637 mmHg 22%
    11:00 +28°C° 0 mm 2 mps 638 mmHg 18%
    12:00 +29°C° 0 mm 3 mps 638 mmHg 18%
    13:00 +30°C° 0 mm 4 mps 637 mmHg 18%
    14:00 +30°C° 0 mm 5 mps 637 mmHg 18%
    15:00 +30°C° 0 mm 5 mps 637 mmHg 18%
    16:00 +29°C° 0 mm 5 mps 637 mmHg 19%
    17:00 +29°C° 0 mm 6 mps 636 mmHg 19%
    18:00 +26°C° 0 mm 5 mps 636 mmHg 34%
    19:00 +22°C° 0 mm 4 mps 635 mmHg 49%
    20:00 +19°C° 0 mm 4 mps 635 mmHg 64%
    21:00 +18°C° 0 mm 3 mps 635 mmHg 65%
    22:00 +17°C° 0 mm 2 mps 635 mmHg 66%
    23:00 +17°C° 0 mm 2 mps 635 mmHg 67%

    21 July, Sunday

    Time Temperature Precipitation Wind Pressure Humidity
    00:00 +17°C° 0 mm 2 mps 634 mmHg 65%
    01:00 +16°C° 0 mm 2 mps 634 mmHg 64%
    02:00 +16°C° 0 mm 2 mps 634 mmHg 62%
    03:00 +15°C° 0 mm 1 mps 633 mmHg 61%
    04:00 +15°C° 0 mm 1 mps 633 mmHg 61%
    05:00 +14°C° 0 mm 1 mps 633 mmHg 60%
    06:00 +18°C° 0 mm 1 mps 634 mmHg 52%
    07:00 +21°C° 0 mm 1 mps 635 mmHg 44%
    08:00 +23°C° 0 mm 2 mps 636 mmHg 37%
    09:00 +25°C° 0 mm 2 mps 636 mmHg 32%
    10:00 +27°C° 0 mm 3 mps 637 mmHg 27%
    11:00 +30°C° 0 mm 4 mps 637 mmHg 22%
    12:00 +32°C° 0 mm 4 mps 637 mmHg 20%
    13:00 +33°C° 0 mm 4 mps 637 mmHg 18%
    14:00 +34°C° 0 mm 3 mps 637 mmHg 15%
    15:00 +33°C° 0 mm 4 mps 636 mmHg 17%
    16:00 +32°C° 0 mm 5 mps 636 mmHg 19%
    17:00 +30°C° 0 mm 5 mps 635 mmHg 21%
    18:00 +27°C° 0 mm 5 mps 635 mmHg 35%
    19:00 +23°C° 0 mm 4 mps 634 mmHg 49%
    20:00 +20°C° 0 mm 3 mps 634 mmHg 63%
    21:00 +19°C° 0 mm 3 mps 634 mmHg 63%
    22:00 +19°C° 0 mm 2 mps 634 mmHg 64%
    23:00 +19°C° 0 mm 1 mps 634 mmHg 64%

    22 July, Monday

    Time Temperature Precipitation Wind Pressure Humidity
    00:00 +19°C° 0 mm 1 mps 633 mmHg 64%
    01:00 +19°C° 0 mm 1 mps 633 mmHg 63%
    02:00 +18°C° 0 mm 2 mps 633 mmHg 63%
    03:00 +17°C° 0 mm 2 mps 633 mmHg 63%
    04:00 +17°C° 0 mm 2 mps 633 mmHg 62%
    05:00 +17°C° 0 mm 2 mps 633 mmHg 62%
    06:00 +19°C° 0 mm 3 mps 634 mmHg 53%
    07:00 +22°C° 0 mm 3 mps 635 mmHg 45%
    08:00 +25°C° 0 mm 4 mps 635 mmHg 36%
    09:00 +28°C° 0 mm 4 mps 636 mmHg 31%
    10:00 +30°C° 0 mm 4 mps 636 mmHg 26%
    11:00 +33°C° 0 mm 4 mps 637 mmHg 21%
    12:00 +34°C° 0 mm 4 mps 636 mmHg 20%
    13:00 +35°C° 0 mm 5 mps 636 mmHg 19%
    14:00 +36°C° 0 mm 5 mps 636 mmHg 18%
    15:00 +34°C° 0 mm 6 mps 635 mmHg 20%
    16:00 +33°C° 0 mm 6 mps 635 mmHg 23%
    17:00 +32°C° 0 mm 7 mps 635 mmHg 25%
    18:00 +28°C° 0 mm 6 mps 634 mmHg 39%
    19:00 +25°C° 0 mm 5 mps 634 mmHg 53%
    20:00 +20°C° 0 mm 4 mps 633 mmHg 67%
    21:00 +20°C° 0 mm 4 mps 633 mmHg 69%
    22:00 +19°C° 0 mm 3 mps 633 mmHg 71%
    23:00 +19°C° 0 mm 2 mps 633 mmHg 72%
    Show more